Skip Page Navigation
NASA JPL Caltech
NASA Logo - Jet Propulsion Laboratory + View the NASA Portal
+ Center for Near-Earth Object Studies
JPL Home Earth Solar System Stars & Galaxies Technology
JPL Solar System Dynamics
BODIES ORBITS EPHEMERIDES TOOLS PHYSICAL DATA DISCOVERY FAQ SITE MAP
JPL Small-Body Database Browser
Search: [ help ]  
(2020 KJ7)
Classification: Amor [NEO]          SPK-ID: 54017316
Ephemeris | Orbit Diagram | Orbital Elements | Mission Design | Physical Parameters | Close-Approach Data ]

[ hide orbit diagram ]

For accurate long-term ephemerides, please instead use our Horizons system.This orbit viewer was implemented using two-body methods, and hence should not be used for determining accurate long-term trajectories (over several years or decades) or planetary encounter circumstances.


[ revert to old Java-based viewer ]

Orbital Elements at Epoch 2459000.5 (2020-May-31.0) TDB
Reference: JPL 18 (heliocentric ecliptic J2000)
 Element Value Uncertainty (1-sigma)   Units 
e .1942938591353837 8.8251e-06  
a 1.291350523421655 1.5282e-05 au
q 1.040449046729564 9.1743e-07 au
i 3.346775718448383 0.00011699 deg
node 114.1684384282614 3.0327e-05 deg
peri 187.5483895423758 5.2705e-05 deg
M 324.4200254382617 0.00067263 deg
tp 2459053.474610682451
(2020-Jul-22.97461068)
6.8954e-05 TDB
period 535.9998167674478
1.47
0.0095144
2.605e-05
d
yr
n .6716420206467941 1.1922e-05 deg/d
Q 1.542252000113746 1.8251e-05 au
  Orbit Determination Parameters
   # obs. used (total)      101  
   data-arc span      79 days  
   first obs. used      2020-05-14  
   last obs. used      2020-08-01  
   planetary ephem.      DE431  
   SB-pert. ephem.      SB431-N16  
   condition code      5  
   norm. resid. RMS      .53757  
   source      ORB  
   producer      Otto Matic  
   solution date      2020-Aug-31 09:29:31  

Additional Information
 Earth MOID = .0253532 au 
 Jupiter MOID = 3.63547 au 
 T_jup = 5.005 
[ show covariance matrix ]

Ephemeris | Orbit Diagram | Orbital Elements | Mission Design | Physical Parameters | Close-Approach Data ]

Physical Parameter Table
Parameter Symbol Value Units Sigma Reference Notes
absolute magnitude H 25.137   .38246 18 autocmod 2.8

[ show close-approach data ]
Ephemeris | Orbit Diagram | Orbital Elements | Mission Design | Physical Parameters | Close-Approach Data ]
ABOUT SSD CREDITS/AWARDS PRIVACY/COPYRIGHT GLOSSARY LINKS
FirstGov 2020-Oct-23 09:33 UT
(server date/time)  
NASA Home Page
Site Manager:   Ryan S. Park
Webmaster  Alan B. Chamberlin